Location: Le Petit-Vavre
(46.5081°N, 1.5239°E)
Time: 18:40:37
(UTC+00:00)

Resurs 01 Rocket - Pass Details

Date: 03 March 2021
Orbit: 635 x 643 km, 98.0° (Epoch: 20 April)

Event Time Altitude Azimuth Distance (km) Brightness Sun altitude
Exits shadow 19:12:39 17° 49° (NE) 1,632 3.3 -16.2°
Drops below altitude 10° 19:14:48 10° 21° (NNE) 2,034 4.1 -16.6°
Sets 19:17:38 0° 2° (N) 2,949 5.1 -17.1°
